User: anonymous   Login
Location: Unspecified
(0.0000°N, 0.0000°E)
Time: 21:41:56
(UTC+00:00)
Language:

QB50P2 - Orbit

View from above orbital plane
View from above orbital plane
View from above satellite
View from above satellite

Ground track
Ground track

The orbit data is extracted from the following two-line orbital elements,

1 40032U 14033Y   22268.40506454  .00002225  00000-0  23475-3 0  9993
2 40032  97.9400 201.6198 0013150  86.1289 274.1432 14.90273056448502
Epoch (UTC): 25 September 2022 09:43:17
Eccentricity: 0.0013150
inclination: 97.9400°
perigee height: 588 km
apogee height: 606 km
right ascension of ascending node: 201.6198°
argument of perigee: 86.1289°
revolutions per day: 14.90273056
mean anomaly at epoch: 274.1432°
orbit number at epoch: 44850

The dashed part of the orbit path shows where the satellite is in the earth's shadow,  

DLR